Weather in Sosnovka

Russia / Irkutsk Oblast     52°49′13″N   103°23′31″E
temp.,
°C
wind,
m/s
gust,
m/s
humid.,
%
clouds,
%
prec.,
mm/h
press.,
hPa
HPBL,
m
16 may, sun
sun1623:00+10n236299 0.0 101766
02:00+7s267368 0.0 1015100
05:00+8ssw276355 0.0 1013145
08:00+13w3941100 0.0 1011355
11:00+11nw31174100 0.4 1014640
14:00+15nw585991 0.6 10131328
17:00+14n5659100 0.0 10121081
20:00+11nne247598 0.4 1012392
17 may, mon
mon1723:00+9ese128286 0.0 101159
02:00+6sse2693100 0.0 1007118
05:00+7ese2591100 0.1 1002158
08:00+7nnw61192100 1.0 1007747
11:00+6nw5985100 0.0 1013801
14:00+8nw466165 0.1 10131250
17:00+11nw584486 0.0 10121787
20:00+9nw375799 0.0 1013784
18 may, tue
tue1823:00+6w3882100 0.0 1014356
02:00+6w3685100 0.3 1014474
05:00+5n1391100 0.9 1014294
08:00+5wsw1291100 1.6 1014322
11:00+9sw236797 0.1 10131272
14:00+8w337191 0.3 1011753
17:00+12nw235299 0.0 10081078
20:00+10ene1164100 0.0 100615
19 may, wed
wed1923:00+8ne2372100 0.0 100570
02:00+6nne2383100 0.1 100380
05:00+6nne2486100 0.1 1003227
08:00+7sw0083100 0.1 1004192
11:00+8se1276100 0.0 1004558
14:00+11ne1166100 0.0 1004892
17:00+13nw2258100 0.0 10031241
20:00+11w007025 0.0 100231
20 may, thu
thu2023:00+7se3687100 0.0 999130
02:00+7se51582100 0.0 994513
05:00+7sse3781100 0.0 992259
08:00+10se2370100 0.0 992227
11:00+18nnw2345100 0.0 993769
14:00+10nw81258100 0.1 9991337
17:00+5nw61386100 5.8 10051162
20:00+4nw4982100 6.6 10071027